Regional Weather Roundup
Issued by NWS

Home | Current Version | Previous Version | Text Only | Print | Product List | Glossary On
Versions: 1 2 3 4 5 6 7 8 9 10 11 12 13 14 15 16 17 18 19 20 21 22 23 24 25 26 27 28 29 30 31 32 33 34 35 36 37 38 39 40 41 42 43 44 45 46 47 48 49 50
000
ASUS43 KTOP 251759
RWRKS

WEATHER ROUNDUP FOR KANSAS
NATIONAL WEATHER SERVICE GOODLAND KS
100 PM CDT MON JUL 25 2016

NOTE:  "FAIR" INDICATES FEW OR NO CLOUDS BELOW 12,000 FEET WITH NO
SIGNIFICANT WEATHER AND/OR OBSTRUCTIONS TO VISIBILITY.

KSZ001>006-013>018-027>032-041>047-251900-
NORTHWEST KANSAS

CITY           SKY/WX    TMP DP  RH WIND       PRES   REMARKS
GOODLAND       MOSUNNY   80  64  58 SE16      30.18F
6HR MIN TEMP:  58; 6HR MAX TEMP:  80;

HAYS           MOSUNNY   79  64  61 SE6       30.14F
HILL CITY      MOSUNNY   82  68  62 E9G17     30.15F
6HR MIN TEMP:  66; 6HR MAX TEMP:  82; 6HR PCP:  0.01;

RUSSELL        CLOUDY    78  68  71 NE3       30.13S
6HR MIN TEMP:  67; 6HR MAX TEMP:  78; 6HR PCP:  0.01;

$$

KSZ061>065-074>080-084>089-251900-
SOUTHWEST KANSAS

CITY           SKY/WX    TMP DP  RH WIND       PRES   REMARKS
DODGE CITY     MOSUNNY   79  68  69 E13G20    30.15F
6HR MIN TEMP:  66; 6HR MAX TEMP:  80;

ELKHART          N/A     78  66  66 NE9         N/A
GARDEN CITY    PTSUNNY   78  65  63 E12       30.17F
6HR MIN TEMP:  64; 6HR MAX TEMP:  78;

GREAT BEND     PTSUNNY   77  64  65 SE10      30.11F
LIBERAL        PTSUNNY   79  66  65 E12       30.17F
$$

KSZ066>073-081>083-090>101-251900-
SOUTHEAST KANSAS

CITY           SKY/WX    TMP DP  RH WIND       PRES   REMARKS
CHANUTE        CLOUDY    77  72  84 SE12      30.02F
6HR MIN TEMP:  72; 6HR MAX TEMP:  77; 6HR PCP:  1.39;

COFFEYVILLE    CLOUDY    79  72  79 E9        30.04F
6HR MIN TEMP:  71; 6HR MAX TEMP:  79; 6HR PCP:  0.06;

HUTCHINSON     CLOUDY    75  67  76 NW7       30.11F
6HR MIN TEMP:  70; 6HR MAX TEMP:  76; 6HR PCP: TRACE;

NEWTON         CLOUDY    75  71  87 NW7       30.10F
PARSONS          N/A    N/A N/A N/A MISG      30.05S
WICHITA INTL   PTSUNNY   80  68  66 SW3       30.08F
6HR MIN TEMP:  71; 6HR MAX TEMP:  80; 6HR PCP:  0.06;

WICHITA JABRA  CLOUDY    80  68  66 CALM      30.08S
6HR MIN TEMP:  69; 6HR MAX TEMP:  80; 6HR PCP: TRACE;

WINFIELD       CLOUDY    82  67  60 E12       30.07F
6HR MIN TEMP:  72; 6HR MAX TEMP:  82; 6HR PCP:  0.07;

$$

KSZ007>012-019>026-033>040-048>060-102>105-251900-
NORTHEAST KANSAS

CITY           SKY/WX    TMP DP  RH WIND       PRES   REMARKS
CONCORDIA      CLOUDY    77  69  76 E6        30.13S
6HR MIN TEMP:  67; 6HR MAX TEMP:  77; 6HR PCP:  0.34;

EMPORIA        PTSUNNY   76  72  87 E5        30.02F
6HR MIN TEMP:  70; 6HR MAX TEMP:  76; 6HR PCP:  0.34;

LAWRENCE       PTSUNNY   77  70  79 NE7       30.06F
6HR MIN TEMP:  73; 6HR MAX TEMP:  78; 6HR PCP: TRACE;

MANHATTAN      CLOUDY    75  69  81 E5        30.09R
6HR MIN TEMP:  70; 6HR MAX TEMP:  76; 6HR PCP:  0.32;

OLATHE IND       N/A     77  71  82 NE9       30.05F
OLATHE EXE     CLOUDY    76  70  82 NE5       30.06F
6HR MIN TEMP:  73; 6HR MAX TEMP:  76;

SALINA         CLOUDY    74  69  85 NE3       30.11F
6HR MIN TEMP:  71; 6HR MAX TEMP:  74; 6HR PCP:  0.03;

TOPEKA BILLARD CLOUDY    77  70  79 NE10      30.05F
6HR MIN TEMP:  72; 6HR MAX TEMP:  77; 6HR PCP:  0.02;

TOPEKA FORBES  CLOUDY    77  71  82 NE9       30.04F
6HR MIN TEMP:  73; 6HR MAX TEMP:  78; 6HR PCP:  0.13;

$$



USA.gov is the U.S. government's official web portal to all federal, state and local government web resources and services.